Volver al catálogo

STARLINK-4609

ActivoComunicacionesVLEO
NORAD 53619·PAYLOAD·🇺🇸 United States

Lanzado Aug 28, 2022 desde Cape Canaveral Space Force Station

Loading…

Próximos Pases (próximas 24 horas)

TLE

ActualizadoSource: CelesTrak SupGP

Época: Sep 14, 2026, 21:10 UTC

1 53619C 22104AH  26257.88243056  .00010767  00000+0  31823-3 0  2578
2 53619  53.1585  94.0005 0000943  84.9111 205.8849 15.34374458    12

Sigue STARLINK-4609 en tiempo real con AllMySat

Download on the App Store